Regional Weather Roundup
Issued by NWS

Home | Current Version | Previous Version | Text Only | Print | Product List | Glossary On
Versions: 1 2 3 4 5 6 7 8 9 10 11 12 13 14 15 16 17 18 19 20 21 22 23 24 25 26 27 28 29 30 31 32 33 34 35 36 37 38 39 40 41 42 43 44 45 46 47 48 49 50
000
ASUS43 KOAX 061610
RWRNE

WEATHER ROUNDUP FOR NEBRASKA
NATIONAL WEATHER SERVICE OMAHA NE
1000 AM CST FRI MAR 06 2015

NOTES: SATELLITE DATA IS BEING USED TO AUGMENT CLOUD COVER ABOVE
       12000 FEET.
       "FAIR" INDICATES FEW OR NO CLOUDS BELOW 12,000 FEET WITH NO
       SIGNIFICANT WEATHER AND/OR OBSTRUCTIONS TO VISIBILITY.

  * THESE STATIONS DO NOT REPORT WEATHER SUCH AS RAIN...SNOW OR FOG.

NEZ001>004-019>022-054>056-061700-
NEBRASKA PANHANDLE

CITY           SKY/WX    TMP DP  RH WIND       PRES   REMARKS
SCOTTSBLUFF    SUNNY     42  22  44 NW14      30.26R
ALLIANCE       SUNNY     44  21  40 W20       30.21R
CHADRON        CLOUDY    39  24  55 W13       30.22R WCI  31
KIMBALL        SUNNY     44  17  32 NW22      30.24S
SIDNEY         SUNNY     45  19  35 NW18      30.26R
$$

NEZ057>060-069>072-079>082-061700-
SOUTHWEST NEBRASKA

CITY           SKY/WX    TMP DP  RH WIND       PRES   REMARKS
NORTH PLATTE   SUNNY     42  23  46 W13       30.24S
IMPERIAL         N/A     46  20  35 NW14      30.26S
LEXINGTON      SUNNY     40  24  52 W8        30.25S WCI  34
MCCOOK         SUNNY     42  22  44 W9        30.28R
OGALLALA       SUNNY     38  25  59 SW5       30.26R WCI  34
$$

NEZ005>010-023>029-035>040-094-061700-
NORTH CENTRAL NEBRASKA

CITY           SKY/WX    TMP DP  RH WIND       PRES   REMARKS
VALENTINE      SUNNY     43  23  45 W14       30.17R
AINSWORTH      SUNNY     44  20  37 NW10      30.17R
BROKEN BOW     SUNNY     47  21  35 W9        30.20S
O`NEILL        SUNNY     47  21  36 W12       30.16R
ORD            SUNNY     45  17  32 W7        30.19S
THEDFORD       SUNNY     48  24  38 W12       30.19S
$$

NEZ041-046>049-061>064-073>077-083>087-061700-
SOUTH CENTRAL NEBRASKA

CITY           SKY/WX    TMP DP  RH WIND       PRES   REMARKS
GRAND ISLAND   SUNNY     42  20  41 SW8       30.23S
AURORA         SUNNY     44  19  37 SW8       30.23S
HASTINGS       FAIR      42  18  37 W8        30.24R
HEBRON         SUNNY     43  17  35 W5        30.27S
HOLDREGE       SUNNY     43  20  40 W8        30.25S
KEARNEY *      SUNNY     41  19  42 SW8       30.24S
YORK           SUNNY     45  21  39 W8        30.23F
$$

NEZ011>018-030>034-042>045-061700-
NORTHEAST NEBRASKA

CITY           SKY/WX    TMP DP  RH WIND       PRES   REMARKS
NORFOLK        SUNNY     47  19  33 W7        30.16F
ALBION         SUNNY     46  18  32 W5        30.18S
BLAIR          SUNNY     37  18  46 SW9       30.20S WCI  30
COLUMBUS *     SUNNY     39  18  41 W10       30.23R WCI  32
FREMONT        SUNNY     42  18  38 SW7       30.21S
TEKAMAH        SUNNY     41  19  41 S5        30.20R
WAYNE          SUNNY     45  19  36 W7        30.16S
$$

NEZ050>053-065>068-078-088>093-061700-
SOUTHEAST NEBRASKA

CITY           SKY/WX    TMP DP  RH WIND       PRES   REMARKS
LINCOLN        SUNNY     44  19  36 CALM      30.25S
OMAHA EPPLEY   SUNNY     36  17  46 SW8       30.23R WCI  30
BEATRICE       SUNNY     40  19  41 W5        30.27S
FALLS CITY     SUNNY     45  22  40 W10       30.27R
NEBRASKA CITY  SUNNY     42  13  31 W14       30.24S
PLATTSMOUTH    SUNNY     40  16  37 SW12      30.23R WCI  33
$$

NEZ044-045-051>053-067-061700-
OMAHA AREA

CITY           SKY/WX    TMP DP  RH WIND       PRES   REMARKS
OMAHA EPPLEY   SUNNY     36  17  46 SW8       30.23R WCI  30
BLAIR          SUNNY     37  18  46 SW9       30.20S WCI  30
FREMONT        SUNNY     42  18  38 SW7       30.21S
MILLARD        SUNNY     38  19  45 W7        30.23R WCI  32
OFFUTT AFB     SUNNY     39  17  39 SW8       30.22R WCI  34
PLATTSMOUTH    SUNNY     40  16  37 SW12      30.23R WCI  33
WAHOO          FAIR      44  17  33 SW6       30.22R
$$



USA.gov is the U.S. government's official web portal to all federal, state and local government web resources and services.